SCP
0 -0 0 -0 0 0 0 -0 -0 -0 0 -0 0 0 0 0 0 -0 -0 0 0 0 0 0 0 0 0 0 0 0 0 0 0 -0 0 0 0 0 0 0 0 0 0 0 0 0 0 0 0
0 0 0 -0 0 0 0 0 0 0 0 0 0 0 0 0 0 0 0 0 0 0 0 0 0 0 0 0 0 0 0 0 0 0 0 0 0 0 0 0 0 0 0 0 0 0 0 0 0
0 0 0 0 0 0 0 0 0 0 0 0 0 0 0 0 0 0 -0 -0 0 0 0 0 0 0 0 0 0 0 0 0 0 0 0 0 0 0 0 0 0 0 0 0 0 0 0 0 0
0 0 0 0 0 0 0 0 -0 0 0 0 0 0 0 0 0 -0 0 0 0 0 0 0 0 0 0 0 0 0 0 0 0 0 0 0 0 0 0 0 0 0 0 0 0 0 0 0 0
0 0 0 0 0 0 0 0 0 0 0 0 0 0 0 0 0 0 0 0 0 0 0 0 0 0 0 0 0 0 0 0 0 0 0 0 0 0 0 0 0 0 0 0 0 0 0 0 0
0 0 0 0 0 0 0 0 0 0 0 0 0 0 0 0 0 0 0 0 0 0 0 0 0 0 0 0 0 0 0 0 0 0 0 0 0 0 0 0 0 0 0 0 0 0 0 0 0
0 0 0 0 0 0 0 0 0 0 0 0 0 0 0 0 0 0 0 0 0 0 0 0 0 0 0 0 0 0 0 0 0 0 0 0 0 0 0 0 0 0 0 0 0 0 0 0 0
0 0 0 0 0 0 0 0 0 0 0 0 0 0 0 0 0 0 0 0 0 0 0 0 0 0 0 0 0 0 0 0 0 0 0 0 0 0 0 0 0 0 0 0 0 0 0 0 0
0 0 0 0 0 0 0 0 0 0 0 0 0 0 0 0 0 0 0 0 0 0 0 0 0 0 0 0 0 0 0 0 0 0 0 0 0 0 0 0 0 0 0 0 0 0 0 0 0
0 0 0 0 0 0 0 0 0 0 0 0 0 0 0 0 0 0 0 0 0 0 0 0 0 0 0 0 0 0 0 0 0 0 0 0 0 0 0 0 0 0 0 0 0 0 0 0 0
0 0 0 0 0 0 0 0 0 0 0 0 0 0 0 0 0 0 0 0 0 0 0 0 0 0 0 0 0 0 0 0 0 0 0 0 0 0 0 0 0 0 0 0 0 0 0 0 0
0 0 0 0 0 0 0 0 0 0 0 0 0 0 0 0 0 0 0 0 0 0 0 0 0 0 0 0 0 0 0 0 0 0 0 0 0 0 0 0 0 0 0 0 0 0 0 0 0
0 0 0 0 0 0 0 0 0 0 0 0 0 0 0 0 0 0 0 0 0 0 0 0 0 0 0 0 0 0 0 0 0 0 0 0 0 0 0 0 0 0 0 0 0 0 0 0 0
0 0 0 0 0 0 0 0 0 0 0 0 0 0 0 0 0 0 0 0 0 0 0 0 0 0 0 0 0 0 0 0 0 0 0 0 0 0 0 0 0 0 0 0 0 0 0 0 0
0 0 0 0 0 0 0 0 0 0 0 0 0 0 0 0 0 0 0 0 0 0 0 0 0 0 0 0 0 0 0 0 0 0 0 0 0 0 0 0 0 0 0 0 0 0 0 0 0
0 0 0 0 0 0 0 0 0 -0 0 0 0 0 0 0 0 0 0 0 0 0 0 0 0 0 0 0 0 0 0 0 0 0 0 0 0 0 0 0 0 0 0 0 0 0 0 0 0
0 0 0 0 0 0 0 0 0 0 0 0 0 0 0 0 0 0 0 0 0 0 0 0 0 0 0 0 0 0 0 0 0 0 0 0 0 0 0 0 0 0 0 0 0 0 0 0 0
-0 -0 0 0 -0 0 0 0 0 0 0 0 0 0 0 0 0 0 0 0 0 0 0 0 0 0 0 0 0 0 0 0 0 0 0 0 0 0 0 0 0 0 0 0 0 0 0 0 0
0 -0 -0 0 0 0 0 0 0 0 0 0 0 0 0 0 0 0 0 0 0 0 0 0 0 0 0 0 0 0 0 0 0 0 0 0 0 0 0 0 0 0 0 0 0 0 0 0 0
0 0 0 -0 0 0 0 0 0 0 0 0 0 0 0 0 0 0 0 0 0 0 0 0 0 0 0 0 0 0 0 0 0 0 0 0 0 0 0 0 0 0 0 0 0 0 0 0 0
0 0 0 0 0 0 0 0 0 0 0 0 0 0 0 0 0 0 0 0 0 0 0 0 0 0 0 0 0 0 0 0 0 0 0 0 0 0 0 0 0 0 0 0 0 0 0 0 0
0 0 0 0 0 0 0 0 0 0 0 0 0 0 0 0 0 0 0 0 0 0 0 0 0 0 0 0 0 0 0 0 0 0 0 0 0 0 0 0 0 0 0 0 0 0 0 0 0
0 -0 0 0 0 0 0 0 0 0 0 0 0 0 0 0 0 0 0 0 0 0 0 0 0 0 0 0 0 0 0 0 0 0 0 0 0 0 0 0 0 0 0 0 0 0 0 0 0
0 0 0 0 0 0 0 0 0 0 0 0 0 0 0 0 0 0 0 0 0 0 0 0 0 0 0 0 0 -0 -0 -0 -0 -0 -0 0 0 0 0 0 0 0 0 0 0 0 0 0 0
0 0 0 0 0 0 0 0 0 0 0 0 0 0 0 0 0 0 0 0 0 0 0 0 0 0 0 -0 -0 -0 -0 -0 -0 -0 0 0 0 0 0 0 0 0 0 0 0 0 0 0 0
0 0 0 0 0 0 0 0 0 0 0 0 0 0 0 0 0 0 0 0 0 0 0 0 0 0 -0 -0 -0 -0 0 0 0 0 0 0 0 0 0 0 0 0 0 0 0 0 0 0 0
0 0 0 0 0 0 0 0 0 0 0 0 0 0 0 0 0 0 0 0 0 0 0 0 0 -0 -0 -0 -0 -0 0 0 0 0 0 0 0 0 0 0 0 0 0 0 0 0 0 0 0
0 0 0 0 0 0 0 0 0 0 0 0 0 0 0 0 0 0 0 0 0 0 0 0 0 -0 -0 -0 -0 -0 0 0 0 0 0 0 0 0 0 0 0 0 0 0 0 0 0 0 0
0 0 0 0 0 0 0 0 0 0 0 0 0 0 0 0 0 0 0 0 0 0 0 0 0 -0 -0 -0 -0 0 0 0 0 0 0 0 0 0 0 0 0 0 0 0 0 0 0 0 0
0 0 0 0 0 0 0 0 0 0 0 0 0 0 0 0 0 0 0 0 0 0 0 0 0 0 0 0 0 0 0 0 0 0 0 0 0 0 0 0 0 0 0 0 0 0 0 0 0
Wind_Speed_500mb
5 9 8 6 8 8 3 7 4 8 5 7 15 12 15 20 8 9 6 9 8 7 3 3 6 7 8 8 7 9 15 14 4 8 7 11 16 15 13 15 15 14 14 15 14 13 11 10 9
3 4 4 5 9 7 4 5 7 5 10 24 17 14 20 11 16 12 6 9 8 4 7 1 1 4 6 6 9 20 14 14 5 4 5 12 16 15 14 13 16 17 16 17 16 14 12 10 7
1 4 6 7 6 7 7 4 6 7 13 4 10 19 8 6 8 8 13 12 14 6 7 7 5 5 6 13 10 9 6 2 4 6 12 15 17 17 16 14 13 14 16 17 18 17 16 14 12
4 6 9 9 9 7 6 4 9 5 11 16 19 15 12 6 2 9 14 8 2 6 8 7 6 2 10 6 3 7 9 7 9 11 13 15 17 19 17 16 15 14 16 18 19 18 18 18 15
8 7 8 8 6 4 2 7 16 5 8 20 5 7 8 8 8 8 10 7 1 9 8 7 1 1 3 5 6 10 10 13 15 16 15 16 18 17 17 17 18 15 15 17 19 19 19 18 18
7 6 9 6 5 4 7 24 20 10 13 8 14 11 6 8 5 10 12 8 4 1 6 8 5 0 8 12 14 16 17 18 23 19 20 21 20 18 18 18 18 19 17 19 23 23 22 22 21
11 8 6 8 10 6 10 15 12 5 12 15 5 8 10 11 10 11 8 7 11 5 8 9 1 8 15 16 18 23 19 19 19 24 23 25 27 23 20 20 20 21 24 22 21 23 24 23 24
7 9 7 8 3 2 15 7 9 14 9 5 6 7 7 14 14 10 10 10 9 6 7 9 10 17 17 20 20 23 25 26 26 26 25 26 22 22 21 22 23 25 25 26 24 25 26 27 26
4 9 5 2 3 1 17 7 10 7 9 16 12 9 10 17 14 10 8 6 7 10 14 17 18 16 22 24 26 29 32 31 31 28 27 26 25 25 26 28 27 27 26 25 26 27 29 30 30
12 9 4 3 2 2 6 8 9 6 6 10 17 16 11 7 13 7 4 7 12 15 18 23 22 26 28 28 31 32 30 29 27 27 27 28 30 30 29 30 29 28 29 29 30 30 31 32 32
9 8 10 3 4 4 5 5 9 9 7 5 3 9 8 7 9 6 2 4 9 15 12 17 23 24 24 24 25 25 25 26 26 25 26 28 29 30 31 31 32 31 31 32 33 33 34 35 35
13 15 6 4 7 1 3 8 5 10 7 5 5 8 7 9 9 5 2 8 12 15 16 20 27 29 28 29 30 30 28 28 28 28 28 29 31 32 34 34 34 35 36 35 36 35 36 37 37
12 5 10 7 8 12 6 7 5 4 7 9 12 12 10 8 11 12 10 8 6 10 13 19 25 31 30 31 31 33 34 33 32 32 32 33 34 35 37 38 38 39 38 38 38 39 38 38 38
10 14 11 12 19 14 14 5 4 3 2 11 9 14 14 15 12 10 8 5 1 7 14 18 23 32 38 35 35 36 36 36 34 34 35 35 36 37 39 40 40 41 43 42 42 42 41 41 40
17 8 7 28 27 9 15 12 16 26 3 9 17 21 25 21 15 17 14 14 19 20 22 26 30 33 37 41 40 37 37 38 39 39 38 37 36 37 39 41 42 43 45 45 45 44 45 45 44
8 9 8 11 37 13 12 4 29 31 7 11 23 27 27 27 26 23 20 18 19 20 23 25 26 28 29 32 35 35 34 40 44 43 41 41 40 40 41 43 43 45 46 48 49 49 49 48 48
15 3 8 5 24 10 15 5 32 41 29 31 37 38 35 31 31 31 29 29 29 28 26 26 28 29 29 28 26 23 26 35 41 38 36 38 40 42 46 47 47 48 49 50 51 51 52 51 49
5 7 7 6 15 13 15 11 23 43 61 52 45 38 36 36 34 30 28 28 27 27 27 28 30 30 29 27 22 23 27 30 32 35 35 34 34 38 44 48 52 53 53 52 52 53 52 54 53
5 4 4 3 8 9 6 8 12 28 46 46 41 37 36 37 31 25 27 26 25 27 29 32 32 35 34 36 39 38 40 41 38 37 40 40 41 45 50 55 58 58 57 55 55 56 56 56 50
15 7 9 10 6 6 3 8 8 17 23 34 37 36 34 26 21 24 26 28 32 34 36 37 38 40 41 40 39 40 41 41 41 40 38 40 45 46 48 52 55 57 60 59 58 59 60 60 52
4 8 5 11 13 1 5 3 9 3 28 35 35 33 31 32 32 32 33 34 34 38 41 42 42 42 43 46 46 46 47 48 49 50 49 45 47 52 55 58 62 64 65 66 61 61 61 62 58
1 3 5 7 6 5 5 8 11 10 9 20 27 32 30 28 26 26 28 32 36 37 36 39 43 46 49 53 57 59 61 65 64 65 64 60 53 55 59 63 68 71 69 70 68 65 65 64 66
3 5 4 3 6 8 7 6 8 11 6 6 15 20 21 22 22 26 30 31 33 37 42 45 48 52 55 58 60 65 68 69 72 73 76 74 72 65 60 66 71 75 76 74 72 71 70 70 71
8 5 8 6 6 6 9 8 8 12 12 9 12 16 17 18 20 21 26 28 33 38 45 50 55 59 64 68 70 71 73 77 81 83 85 84 82 80 77 71 69 74 76 79 75 73 73 74 74
14 11 8 11 9 10 3 2 14 4 6 19 24 15 12 13 19 25 29 37 44 50 54 59 64 70 74 76 78 79 80 81 83 85 85 85 85 82 80 76 76 71 73 76 79 77 77 75 76
8 8 9 9 6 10 4 10 9 6 19 20 16 11 5 7 14 21 32 39 46 53 57 63 70 74 75 77 79 78 77 79 82 85 87 87 85 83 76 73 68 68 65 69 74 79 80 72 71
7 8 3 10 3 7 6 12 1 5 2 8 9 6 3 6 11 20 32 44 52 57 60 65 70 72 74 75 76 73 71 72 79 84 84 86 83 81 80 71 69 61 64 60 62 73 72 66 66
6 3 7 6 8 11 11 12 10 13 15 10 10 9 13 15 18 22 34 50 56 58 61 65 68 72 70 69 68 71 73 73 77 81 83 82 85 82 77 75 67 61 62 62 61 69 72 71 66
3 3 7 5 7 9 6 12 10 14 17 14 12 12 18 24 26 29 38 53 59 61 65 68 71 73 72 72 73 76 78 77 77 81 83 81 84 81 79 71 62 57 61 61 53 61 64 63 60
4 9 8 8 12 7 5 17 3 13 23 15 11 18 23 26 28 29 42 55 62 65 71 70 74 72 71 73 75 77 77 76 78 78 83 77 76 74 76 70 55 55 66 61 53 52 54 54 52
Wind_Direction_500mb
318 315 355 62 64 70 39 287 0 1 63 23 66 87 97 32 70 143 173 209 202 297 218 322 257 229 217 205 188 189 169 101 159 349 318 328 350 333 328 327 326 330 335 339 345 350 353 357 355
308 315 31 87 92 95 345 357 67 334 124 108 65 51 35 51 50 109 156 183 207 270 61 340 256 224 212 182 146 153 137 136 99 281 321 343 336 329 331 322 322 325 328 329 334 339 338 339 334
172 51 51 83 80 114 115 0 256 82 93 174 103 66 63 40 61 137 135 93 193 210 119 86 78 141 170 160 146 31 55 137 31 341 332 334 332 331 330 325 325 323 326 327 327 329 329 328 326
161 88 68 79 97 16 99 289 313 135 62 49 113 72 80 63 113 149 137 113 88 113 110 104 93 208 174 154 350 356 341 356 335 317 311 315 319 322 325 322 320 321 320 318 318 318 319 318 316
90 68 61 79 60 97 27 341 41 64 82 50 141 113 67 89 71 130 153 145 33 131 147 156 280 351 319 15 335 323 333 325 324 315 307 306 308 310 311 314 313 312 320 322 319 316 314 311 308
87 78 65 107 109 340 348 21 48 50 46 44 75 101 102 132 119 121 106 135 180 5 167 152 159 227 333 346 338 342 338 329 326 313 304 303 302 304 309 308 308 310 316 318 315 313 312 311 307
97 78 121 112 142 38 325 360 50 45 33 30 45 74 141 160 140 117 146 151 153 194 223 219 231 347 335 329 324 323 326 325 324 309 302 297 292 294 294 296 298 305 311 311 312 310 309 308 305
73 88 66 25 155 93 344 40 21 48 52 36 44 121 168 183 152 141 133 154 152 146 87 324 327 313 320 320 326 322 329 323 313 307 301 299 298 296 292 296 299 304 308 311 311 309 310 307 303
43 62 66 65 111 228 4 60 35 19 70 52 52 88 107 148 156 165 186 205 253 268 297 296 311 324 311 312 313 320 312 311 307 304 300 295 294 294 298 299 300 301 303 303 305 306 307 304 302
60 81 149 251 204 132 14 55 350 52 83 54 69 89 89 79 141 164 223 256 279 291 291 295 313 311 309 316 314 314 313 312 310 305 301 297 297 298 298 298 300 301 302 303 302 303 303 301 299
38 113 167 40 34 13 28 19 12 126 46 86 132 134 106 104 137 156 240 319 330 318 321 308 301 308 309 312 312 314 314 313 310 307 303 302 300 298 298 297 297 298 298 300 302 302 302 300 299
92 53 118 87 28 66 9 337 54 51 113 86 40 103 105 124 126 135 336 342 345 335 335 331 323 324 322 321 319 317 316 313 311 310 306 302 300 299 297 297 297 297 298 298 299 298 298 298 297
75 133 79 74 36 35 15 43 356 77 85 76 96 103 95 108 84 56 66 39 339 327 325 330 327 322 323 324 320 317 314 313 312 310 307 304 302 300 298 297 298 297 296 296 296 297 296 295 294
115 105 72 32 23 34 16 340 33 89 115 138 125 105 84 85 81 89 78 50 13 302 297 311 304 306 313 315 318 321 318 312 311 307 305 304 303 302 299 298 297 298 298 299 298 297 296 296 294
121 69 36 23 352 30 357 26 14 346 340 168 146 108 105 95 86 55 17 337 336 325 319 305 301 302 303 305 309 310 318 316 312 311 305 303 301 301 300 299 298 297 297 297 296 295 295 295 294
43 45 46 7 16 0 24 73 350 349 308 62 131 121 117 87 61 42 26 12 359 347 345 341 331 326 320 311 312 312 316 319 318 313 307 305 303 303 302 300 299 297 295 295 294 293 292 293 292
14 79 24 44 25 324 36 33 356 35 73 79 107 100 85 70 51 35 24 17 12 7 0 356 353 350 345 336 329 321 321 312 310 311 308 308 308 307 304 302 301 298 295 294 292 291 292 291 289
327 11 352 35 343 21 20 39 10 51 71 79 87 86 78 66 52 35 26 25 21 17 12 9 7 2 1 353 340 327 322 318 316 312 309 305 307 307 306 302 299 298 293 292 290 290 289 289 290
214 112 347 72 31 39 59 88 38 58 74 75 78 81 78 71 61 45 40 32 26 21 16 13 7 6 359 357 351 345 340 334 326 318 302 297 299 295 294 295 296 297 292 290 289 289 287 286 286
30 40 344 286 344 45 86 95 58 55 75 86 88 85 83 82 66 45 34 33 34 32 30 26 21 16 12 7 1 353 343 336 331 322 313 301 295 296 293 293 294 296 295 290 288 287 286 285 283
55 140 223 222 332 24 116 260 180 106 99 89 83 86 75 65 58 53 47 41 37 32 27 21 17 12 9 2 355 348 342 339 338 334 328 317 302 297 295 292 291 291 292 289 286 282 279 280 278
193 205 266 286 27 200 14 263 221 179 114 78 75 73 70 66 61 51 41 33 27 22 13 11 7 3 359 355 351 348 344 337 333 327 321 316 310 299 290 287 288 289 290 286 284 281 277 273 271
319 333 302 45 65 27 340 67 301 138 157 139 98 95 81 66 52 43 35 28 19 10 5 360 356 352 350 347 345 340 334 328 323 319 314 310 305 299 291 284 282 283 286 287 284 280 275 271 270
302 48 44 66 105 17 253 122 234 198 191 155 125 95 73 58 48 39 27 14 7 360 354 350 347 345 341 338 334 331 325 322 318 316 312 309 305 300 294 290 282 279 280 281 284 281 276 271 268
30 44 346 354 5 231 1 12 255 63 105 155 158 136 92 55 36 23 9 5 1 356 352 347 344 342 340 338 337 335 333 329 325 322 318 314 310 308 303 298 294 289 279 278 277 279 279 274 267
9 114 141 247 270 287 348 247 291 85 114 130 130 136 128 37 24 13 8 359 353 350 347 345 344 342 341 338 335 332 330 328 326 324 321 318 315 312 311 301 295 294 288 277 279 274 277 274 267
331 38 119 95 77 38 280 294 243 96 26 146 160 190 285 320 338 354 352 352 350 346 345 344 342 339 337 334 332 331 330 328 326 325 322 321 316 309 308 304 293 293 289 282 277 275 272 275 269
128 162 27 12 338 307 286 278 248 234 226 252 215 244 269 286 292 316 340 345 343 342 340 339 338 336 334 331 331 331 330 330 329 327 326 319 317 311 304 303 298 293 295 281 276 273 272 270 263
12 5 48 123 149 206 287 259 208 220 193 203 224 271 294 291 289 313 330 336 336 336 337 336 336 333 331 331 330 329 329 329 326 325 328 322 317 314 309 302 298 297 293 294 276 279 275 266 260
240 210 170 128 265 232 183 270 275 182 176 190 249 292 307 304 298 309 324 330 332 334 335 334 331 328 328 327 326 326 328 328 328 326 327 326 321 314 312 309 299 297 292 298 273 275 273 267 260
Wind_Speed_850mb
5 9 8 6 8 8 3 7 4 8 5 7 15 12 15 20 8 9 6 9 8 7 3 3 6 7 8 8 7 9 15 14 4 8 7 11 16 15 13 15 15 14 14 15 14 13 11 10 9
3 4 4 5 9 7 4 5 7 5 10 24 17 14 20 11 16 12 6 9 8 4 7 1 1 4 6 6 9 20 14 14 5 4 5 12 16 15 14 13 16 17 16 17 16 14 12 10 7
1 4 6 7 6 7 7 4 6 7 13 4 10 19 8 6 8 8 13 12 14 6 7 7 5 5 6 13 10 9 6 2 4 6 12 15 17 17 16 14 13 14 16 17 18 17 16 14 12
4 6 9 9 9 7 6 4 9 5 11 16 19 15 12 6 2 9 14 8 2 6 8 7 6 2 10 6 3 7 9 7 9 11 13 15 17 19 17 16 15 14 16 18 19 18 18 18 15
8 7 8 8 6 4 2 7 16 5 8 20 5 7 8 8 8 8 10 7 1 9 8 7 1 1 3 5 6 10 10 13 15 16 15 16 18 17 17 17 18 15 15 17 19 19 19 18 18
7 6 9 6 5 4 7 24 20 10 13 8 14 11 6 8 5 10 12 8 4 1 6 8 5 0 8 12 14 16 17 18 23 19 20 21 20 18 18 18 18 19 17 19 23 23 22 22 21
11 8 6 8 10 6 10 15 12 5 12 15 5 8 10 11 10 11 8 7 11 5 8 9 1 8 15 16 18 23 19 19 19 24 23 25 27 23 20 20 20 21 24 22 21 23 24 23 24
7 9 7 8 3 2 15 7 9 14 9 5 6 7 7 14 14 10 10 10 9 6 7 9 10 17 17 20 20 23 25 26 26 26 25 26 22 22 21 22 23 25 25 26 24 25 26 27 26
4 9 5 2 3 1 17 7 10 7 9 16 12 9 10 17 14 10 8 6 7 10 14 17 18 16 22 24 26 29 32 31 31 28 27 26 25 25 26 28 27 27 26 25 26 27 29 30 30
12 9 4 3 2 2 6 8 9 6 6 10 17 16 11 7 13 7 4 7 12 15 18 23 22 26 28 28 31 32 30 29 27 27 27 28 30 30 29 30 29 28 29 29 30 30 31 32 32
9 8 10 3 4 4 5 5 9 9 7 5 3 9 8 7 9 6 2 4 9 15 12 17 23 24 24 24 25 25 25 26 26 25 26 28 29 30 31 31 32 31 31 32 33 33 34 35 35
13 15 6 4 7 1 3 8 5 10 7 5 5 8 7 9 9 5 2 8 12 15 16 20 27 29 28 29 30 30 28 28 28 28 28 29 31 32 34 34 34 35 36 35 36 35 36 37 37
12 5 10 7 8 12 6 7 5 4 7 9 12 12 10 8 11 12 10 8 6 10 13 19 25 31 30 31 31 33 34 33 32 32 32 33 34 35 37 38 38 39 38 38 38 39 38 38 38
10 14 11 12 19 14 14 5 4 3 2 11 9 14 14 15 12 10 8 5 1 7 14 18 23 32 38 35 35 36 36 36 34 34 35 35 36 37 39 40 40 41 43 42 42 42 41 41 40
17 8 7 28 27 9 15 12 16 26 3 9 17 21 25 21 15 17 14 14 19 20 22 26 30 33 37 41 40 37 37 38 39 39 38 37 36 37 39 41 42 43 45 45 45 44 45 45 44
8 9 8 11 37 13 12 4 29 31 7 11 23 27 27 27 26 23 20 18 19 20 23 25 26 28 29 32 35 35 34 40 44 43 41 41 40 40 41 43 43 45 46 48 49 49 49 48 48
15 3 8 5 24 10 15 5 32 41 29 31 37 38 35 31 31 31 29 29 29 28 26 26 28 29 29 28 26 23 26 35 41 38 36 38 40 42 46 47 47 48 49 50 51 51 52 51 49
5 7 7 6 15 13 15 11 23 43 61 52 45 38 36 36 34 30 28 28 27 27 27 28 30 30 29 27 22 23 27 30 32 35 35 34 34 38 44 48 52 53 53 52 52 53 52 54 53
5 4 4 3 8 9 6 8 12 28 46 46 41 37 36 37 31 25 27 26 25 27 29 32 32 35 34 36 39 38 40 41 38 37 40 40 41 45 50 55 58 58 57 55 55 56 56 56 50
15 7 9 10 6 6 3 8 8 17 23 34 37 36 34 26 21 24 26 28 32 34 36 37 38 40 41 40 39 40 41 41 41 40 38 40 45 46 48 52 55 57 60 59 58 59 60 60 52
4 8 5 11 13 1 5 3 9 3 28 35 35 33 31 32 32 32 33 34 34 38 41 42 42 42 43 46 46 46 47 48 49 50 49 45 47 52 55 58 62 64 65 66 61 61 61 62 58
1 3 5 7 6 5 5 8 11 10 9 20 27 32 30 28 26 26 28 32 36 37 36 39 43 46 49 53 57 59 61 65 64 65 64 60 53 55 59 63 68 71 69 70 68 65 65 64 66
3 5 4 3 6 8 7 6 8 11 6 6 15 20 21 22 22 26 30 31 33 37 42 45 48 52 55 58 60 65 68 69 72 73 76 74 72 65 60 66 71 75 76 74 72 71 70 70 71
8 5 8 6 6 6 9 8 8 12 12 9 12 16 17 18 20 21 26 28 33 38 45 50 55 59 64 68 70 71 73 77 81 83 85 84 82 80 77 71 69 74 76 79 75 73 73 74 74
14 11 8 11 9 10 3 2 14 4 6 19 24 15 12 13 19 25 29 37 44 50 54 59 64 70 74 76 78 79 80 81 83 85 85 85 85 82 80 76 76 71 73 76 79 77 77 75 76
8 8 9 9 6 10 4 10 9 6 19 20 16 11 5 7 14 21 32 39 46 53 57 63 70 74 75 77 79 78 77 79 82 85 87 87 85 83 76 73 68 68 65 69 74 79 80 72 71
7 8 3 10 3 7 6 12 1 5 2 8 9 6 3 6 11 20 32 44 52 57 60 65 70 72 74 75 76 73 71 72 79 84 84 86 83 81 80 71 69 61 64 60 62 73 72 66 66
6 3 7 6 8 11 11 12 10 13 15 10 10 9 13 15 18 22 34 50 56 58 61 65 68 72 70 69 68 71 73 73 77 81 83 82 85 82 77 75 67 61 62 62 61 69 72 71 66
3 3 7 5 7 9 6 12 10 14 17 14 12 12 18 24 26 29 38 53 59 61 65 68 71 73 72 72 73 76 78 77 77 81 83 81 84 81 79 71 62 57 61 61 53 61 64 63 60
4 9 8 8 12 7 5 17 3 13 23 15 11 18 23 26 28 29 42 55 62 65 71 70 74 72 71 73 75 77 77 76 78 78 83 77 76 74 76 70 55 55 66 61 53 52 54 54 52
Wind_Direction_850mb
318 315 355 62 64 70 39 287 0 1 63 23 66 87 97 32 70 143 173 209 202 297 218 322 257 229 217 205 188 189 169 101 159 349 318 328 350 333 328 327 326 330 335 339 345 350 353 357 355
308 315 31 87 92 95 345 357 67 334 124 108 65 51 35 51 50 109 156 183 207 270 61 340 256 224 212 182 146 153 137 136 99 281 321 343 336 329 331 322 322 325 328 329 334 339 338 339 334
172 51 51 83 80 114 115 0 256 82 93 174 103 66 63 40 61 137 135 93 193 210 119 86 78 141 170 160 146 31 55 137 31 341 332 334 332 331 330 325 325 323 326 327 327 329 329 328 326
161 88 68 79 97 16 99 289 313 135 62 49 113 72 80 63 113 149 137 113 88 113 110 104 93 208 174 154 350 356 341 356 335 317 311 315 319 322 325 322 320 321 320 318 318 318 319 318 316
90 68 61 79 60 97 27 341 41 64 82 50 141 113 67 89 71 130 153 145 33 131 147 156 280 351 319 15 335 323 333 325 324 315 307 306 308 310 311 314 313 312 320 322 319 316 314 311 308
87 78 65 107 109 340 348 21 48 50 46 44 75 101 102 132 119 121 106 135 180 5 167 152 159 227 333 346 338 342 338 329 326 313 304 303 302 304 309 308 308 310 316 318 315 313 312 311 307
97 78 121 112 142 38 325 360 50 45 33 30 45 74 141 160 140 117 146 151 153 194 223 219 231 347 335 329 324 323 326 325 324 309 302 297 292 294 294 296 298 305 311 311 312 310 309 308 305
73 88 66 25 155 93 344 40 21 48 52 36 44 121 168 183 152 141 133 154 152 146 87 324 327 313 320 320 326 322 329 323 313 307 301 299 298 296 292 296 299 304 308 311 311 309 310 307 303
43 62 66 65 111 228 4 60 35 19 70 52 52 88 107 148 156 165 186 205 253 268 297 296 311 324 311 312 313 320 312 311 307 304 300 295 294 294 298 299 300 301 303 303 305 306 307 304 302
60 81 149 251 204 132 14 55 350 52 83 54 69 89 89 79 141 164 223 256 279 291 291 295 313 311 309 316 314 314 313 312 310 305 301 297 297 298 298 298 300 301 302 303 302 303 303 301 299
38 113 167 40 34 13 28 19 12 126 46 86 132 134 106 104 137 156 240 319 330 318 321 308 301 308 309 312 312 314 314 313 310 307 303 302 300 298 298 297 297 298 298 300 302 302 302 300 299
92 53 118 87 28 66 9 337 54 51 113 86 40 103 105 124 126 135 336 342 345 335 335 331 323 324 322 321 319 317 316 313 311 310 306 302 300 299 297 297 297 297 298 298 299 298 298 298 297
75 133 79 74 36 35 15 43 356 77 85 76 96 103 95 108 84 56 66 39 339 327 325 330 327 322 323 324 320 317 314 313 312 310 307 304 302 300 298 297 298 297 296 296 296 297 296 295 294
115 105 72 32 23 34 16 340 33 89 115 138 125 105 84 85 81 89 78 50 13 302 297 311 304 306 313 315 318 321 318 312 311 307 305 304 303 302 299 298 297 298 298 299 298 297 296 296 294
121 69 36 23 352 30 357 26 14 346 340 168 146 108 105 95 86 55 17 337 336 325 319 305 301 302 303 305 309 310 318 316 312 311 305 303 301 301 300 299 298 297 297 297 296 295 295 295 294
43 45 46 7 16 0 24 73 350 349 308 62 131 121 117 87 61 42 26 12 359 347 345 341 331 326 320 311 312 312 316 319 318 313 307 305 303 303 302 300 299 297 295 295 294 293 292 293 292
14 79 24 44 25 324 36 33 356 35 73 79 107 100 85 70 51 35 24 17 12 7 0 356 353 350 345 336 329 321 321 312 310 311 308 308 308 307 304 302 301 298 295 294 292 291 292 291 289
327 11 352 35 343 21 20 39 10 51 71 79 87 86 78 66 52 35 26 25 21 17 12 9 7 2 1 353 340 327 322 318 316 312 309 305 307 307 306 302 299 298 293 292 290 290 289 289 290
214 112 347 72 31 39 59 88 38 58 74 75 78 81 78 71 61 45 40 32 26 21 16 13 7 6 359 357 351 345 340 334 326 318 302 297 299 295 294 295 296 297 292 290 289 289 287 286 286
30 40 344 286 344 45 86 95 58 55 75 86 88 85 83 82 66 45 34 33 34 32 30 26 21 16 12 7 1 353 343 336 331 322 313 301 295 296 293 293 294 296 295 290 288 287 286 285 283
55 140 223 222 332 24 116 260 180 106 99 89 83 86 75 65 58 53 47 41 37 32 27 21 17 12 9 2 355 348 342 339 338 334 328 317 302 297 295 292 291 291 292 289 286 282 279 280 278
193 205 266 286 27 200 14 263 221 179 114 78 75 73 70 66 61 51 41 33 27 22 13 11 7 3 359 355 351 348 344 337 333 327 321 316 310 299 290 287 288 289 290 286 284 281 277 273 271
319 333 302 45 65 27 340 67 301 138 157 139 98 95 81 66 52 43 35 28 19 10 5 360 356 352 350 347 345 340 334 328 323 319 314 310 305 299 291 284 282 283 286 287 284 280 275 271 270
302 48 44 66 105 17 253 122 234 198 191 155 125 95 73 58 48 39 27 14 7 360 354 350 347 345 341 338 334 331 325 322 318 316 312 309 305 300 294 290 282 279 280 281 284 281 276 271 268
30 44 346 354 5 231 1 12 255 63 105 155 158 136 92 55 36 23 9 5 1 356 352 347 344 342 340 338 337 335 333 329 325 322 318 314 310 308 303 298 294 289 279 278 277 279 279 274 267
9 114 141 247 270 287 348 247 291 85 114 130 130 136 128 37 24 13 8 359 353 350 347 345 344 342 341 338 335 332 330 328 326 324 321 318 315 312 311 301 295 294 288 277 279 274 277 274 267
331 38 119 95 77 38 280 294 243 96 26 146 160 190 285 320 338 354 352 352 350 346 345 344 342 339 337 334 332 331 330 328 326 325 322 321 316 309 308 304 293 293 289 282 277 275 272 275 269
128 162 27 12 338 307 286 278 248 234 226 252 215 244 269 286 292 316 340 345 343 342 340 339 338 336 334 331 331 331 330 330 329 327 326 319 317 311 304 303 298 293 295 281 276 273 272 270 263
12 5 48 123 149 206 287 259 208 220 193 203 224 271 294 291 289 313 330 336 336 336 337 336 336 333 331 331 330 329 329 329 326 325 328 322 317 314 309 302 298 297 293 294 276 279 275 266 260
240 210 170 128 265 232 183 270 275 182 176 190 249 292 307 304 298 309 324 330 332 334 335 334 331 328 328 327 326 326 328 328 328 326 327 326 321 314 312 309 299 297 292 298 273 275 273 267 260